FENGYUN 1C DEB

Satellite information

Favourite Embed

Satellite Type and Status

DEBRISIN ORBIT

Key statistics

Satellite FENGYUN 1C DEB at a glance.

Uptime

9613

Days in orbit

Revolutions

≈ 14.3

Per day

Orbit

SSO

Sun Synchronous Orbit

Inclination

99.3

Latest

Satellite identification and parameters

Extended collection of information and parameters for FENGYUN 1C DEB.

Object identification

Identified? True

Debris? True

Object name: FENGYUN 1C DEB

International designator: 1999-025DUD

Object number (NORAD): 36204

Object ID (CCSDS): 36204

Country: PEOPLES REPUBLIC OF CHINA (PRC)

Current information (Y/N): Y

RCS size: SMALL

Orbital parameters

Period: 100.452 minutes

Inclination: 99.2933 deg

SMA: 7158.101 km

Apoapsis: 794.819 km

Periapsis: 765.112 km

RAAN: 323.8249 deg

Eccentricy: 0.00207507

Argument of periapsis: 127.1253 deg

Mean anomaly: 233.1829 deg

Mean motion: 14.33527566 rev/day

Mean motion (dot): 0.00001944 rev/day2

B* drag term: 0.00071910268 1/REarth

Two-line elements (TLE)

Creation date: Aug. 24, 2025, 2:08 a.m.

Reference frame: TEME

Reference center: EARTH

Epoch: Aug. 22, 2025, 11:45 p.m. UTC

TLE line 0: 0 FENGYUN 1C DEB

TLE line 1: 1 36204U 99025DUD 25234.98999611 .00001944 00000-0 71910-3 0 9997

TLE line 2: 2 36204 99.2933 323.8249 0020751 127.1253 233.1829 14.33527566928266

Live tracking on map

Real-time ground track for satellite FENGYUN 1C DEB.

In-orbit conjunctions

A list of the most updated potential collisions computed for object FENGYUN 1C DEB.

Target Orbit TCA Probability of collision Miss distance Type
THORAD AGENA D DEB LEO 2025-05-09 12:47:41 0.0001082202 167.0 (m) DEBRIS
CZ-6A DEB LEO 2024-12-13 05:15:38 0.000201247 546.0 (m) DEBRIS

Associated space launch

Chinese polar orbiting meteorological satellite

FENGYUN 1C DEB was lifted into orbit during the mission ‘Long March 4B | Feng Yun 1C’, on board a Long March 4B space rocket.

The launch took place on May 10, 1999, 1:33 a.m. from Launch Complex 7.

For more information about the launch, click the button.

Launch to space Long March 4B | Feng Yun 1C
Long March 4B | Feng Yun 1C

Agency: N/A

Status: Launch Successful

Launch date: May 10, 1999, 1:33 a.m. UTC

Rocket: Long March 4B

Launch pad: Launch Complex 7

Location: Taiyuan Satellite Launch Center, People's Republic of China

...

Latest news about this satellite

There are no fresh news available about this satellite. Check back as we update our databases every day.


Newsletter sign-up

Weekly statistics, charts and insights to help you stay on top of the space industry.